Visibility
15.0 15.0 15.0 15.0 15.0 15.0 15.0 15.0 15.0 15.0 15.0 15.0 15.0 15.0 15.0 15.0 15.0 15.0 15.0 15.0 15.0 15.0 15.0 15.0 15.0 15.0 15.0 15.0 15.0 15.0 15.0 15.0 15.0 15.0 15.0 15.0 15.0 15.0 15.0 15.0 15.0 15.0 15.0 15.0
15.0 15.0 15.0 15.0 15.0 15.0 15.0 15.0 15.0 15.0 15.0 15.0 15.0 15.0 15.0 15.0 15.0 15.0 15.0 15.0 15.0 15.0 15.0 15.0 15.0 15.0 15.0 15.0 15.0 15.0 15.0 15.0 15.0 15.0 15.0 15.0 15.0 15.0 15.0 15.0 15.0 15.0 15.0 15.0
15.0 15.0 15.0 15.0 15.0 15.0 15.0 15.0 15.0 15.0 15.0 15.0 15.0 15.0 15.0 15.0 15.0 15.0 15.0 15.0 15.0 15.0 15.0 15.0 15.0 15.0 15.0 15.0 15.0 15.0 15.0 15.0 15.0 15.0 15.0 15.0 15.0 15.0 15.0 15.0 15.0 15.0 15.0 15.0
15.0 15.0 15.0 15.0 15.0 15.0 15.0 15.0 15.0 15.0 15.0 15.0 15.0 15.0 15.0 15.0 15.0 15.0 15.0 15.0 15.0 15.0 15.0 15.0 15.0 15.0 15.0 15.0 15.0 15.0 15.0 15.0 15.0 15.0 15.0 15.0 15.0 15.0 15.0 15.0 15.0 15.0 15.0 15.0
15.0 15.0 15.0 15.0 15.0 15.0 15.0 15.0 15.0 15.0 15.0 15.0 15.0 15.0 15.0 15.0 15.0 15.0 15.0 15.0 15.0 15.0 15.0 15.0 15.0 15.0 15.0 15.0 15.0 15.0 15.0 15.0 15.0 15.0 15.0 15.0 15.0 15.0 15.0 15.0 15.0 15.0 15.0 15.0
15.0 15.0 15.0 15.0 15.0 15.0 15.0 15.0 15.0 15.0 15.0 15.0 15.0 15.0 15.0 15.0 15.0 15.0 15.0 15.0 15.0 15.0 15.0 15.0 15.0 15.0 15.0 15.0 15.0 15.0 15.0 15.0 15.0 15.0 15.0 15.0 15.0 15.0 15.0 15.0 15.0 15.0 15.0 15.0
15.0 15.0 15.0 15.0 15.0 15.0 15.0 15.0 15.0 15.0 15.0 15.0 15.0 15.0 15.0 15.0 15.0 15.0 15.0 15.0 15.0 15.0 15.0 15.0 15.0 15.0 15.0 15.0 15.0 15.0 15.0 15.0 15.0 15.0 15.0 15.0 15.0 15.0 15.0 15.0 15.0 15.0 15.0 15.0
15.0 15.0 15.0 15.0 15.0 15.0 15.0 15.0 15.0 15.0 15.0 15.0 15.0 15.0 15.0 15.0 15.0 15.0 15.0 15.0 15.0 15.0 15.0 15.0 15.0 15.0 15.0 15.0 15.0 15.0 15.0 15.0 15.0 15.0 15.0 15.0 15.0 15.0 15.0 15.0 15.0 15.0 15.0 15.0
15.0 15.0 15.0 15.0 15.0 15.0 15.0 15.0 15.0 15.0 15.0 15.0 15.0 15.0 15.0 15.0 15.0 15.0 15.0 15.0 15.0 15.0 15.0 15.0 15.0 15.0 15.0 15.0 15.0 15.0 15.0 15.0 15.0 15.0 15.0 15.0 15.0 15.0 15.0 15.0 15.0 15.0 15.0 15.0
15.0 15.0 15.0 15.0 15.0 15.0 15.0 15.0 15.0 15.0 15.0 15.0 15.0 15.0 15.0 15.0 15.0 15.0 15.0 15.0 15.0 15.0 15.0 15.0 15.0 15.0 15.0 15.0 15.0 15.0 15.0 15.0 15.0 15.0 15.0 15.0 15.0 15.0 15.0 15.0 15.0 15.0 15.0 15.0
15.0 15.0 15.0 15.0 15.0 15.0 15.0 15.0 15.0 15.0 15.0 15.0 15.0 15.0 15.0 15.0 15.0 15.0 15.0 15.0 15.0 15.0 15.0 15.0 15.0 15.0 15.0 15.0 15.0 15.0 15.0 15.0 15.0 15.0 15.0 15.0 15.0 15.0 15.0 15.0 15.0 15.0 15.0 15.0
15.0 15.0 2.6 15.0 15.0 15.0 15.0 15.0 15.0 14.7 14.2 1.7 0.2 11.0 15.0 15.0 15.0 15.0 15.0 15.0 15.0 15.0 15.0 15.0 15.0 15.0 15.0 15.0 15.0 15.0 15.0 15.0 15.0 15.0 15.0 15.0 15.0 15.0 15.0 15.0 15.0 15.0 15.0 15.0
15.0 14.9 3.2 15.0 15.0 14.4 15.0 15.0 0.8 0.2 0.1 0.3 0.1 11.2 15.0 15.0 15.0 15.0 15.0 15.0 15.0 15.0 15.0 15.0 15.0 15.0 15.0 15.0 15.0 15.0 15.0 15.0 15.0 15.0 15.0 15.0 15.0 15.0 15.0 15.0 15.0 15.0 15.0 15.0
13.2 0.4 3.5 3.3 15.0 15.0 15.0 15.0 15.0 15.0 0.7 15.0 15.0 15.0 15.0 15.0 14.2 15.0 15.0 15.0 15.0 15.0 15.0 12.9 15.0 15.0 15.0 15.0 15.0 15.0 15.0 15.0 15.0 11.6 11.7 15.0 15.0 6.1 10.0 15.0 15.0 15.0 15.0 15.0
0.1 0.1 1.0 15.0 15.0 15.0 15.0 15.0 15.0 11.8 14.3 0.5 15.0 10.4 0.9 11.0 10.6 15.0 15.0 15.0 15.0 15.0 15.0 15.0 15.0 15.0 15.0 15.0 15.0 15.0 15.0 15.0 15.0 13.6 4.8 3.4 14.5 11.5 9.7 4.0 3.2 4.7 3.5 3.0
3.1 0.1 14.8 0.1 15.0 15.0 15.0 15.0 15.0 15.0 15.0 6.7 15.0 10.9 15.0 15.0 15.0 15.0 15.0 15.0 15.0 14.9 15.0 15.0 15.0 15.0 15.0 15.0 15.0 15.0 15.0 15.0 15.0 15.0 13.4 2.9 1.9 5.4 6.7 1.4 0.2 0.1 0.2 0.1
0.3 0.1 0.1 1.2 14.8 14.0 1.7 13.7 14.4 6.5 4.8 1.5 6.4 3.2 14.3 12.4 14.4 1.0 1.9 4.4 1.7 0.7 13.3 15.0 13.0 12.2 11.0 10.9 12.2 12.2 13.4 15.0 9.5 2.9 3.0 6.1 5.2 0.2 0.2 0.1 0.1 0.1 10.6 15.0
0.6 0.2 0.1 0.1 0.3 0.1 1.6 1.0 14.3 6.9 0.7 2.5 7.3 2.5 9.8 10.4 15.0 1.9 5.1 0.6 1.5 2.0 0.7 1.0 0.3 0.1 0.1 0.1 0.1 5.5 6.2 0.1 0.1 0.1 0.1 0.1 0.1 0.1 0.1 0.1 0.1 13.4 15.0 10.9
0.3 0.1 0.1 0.1 1.9 3.0 0.5 0.7 0.7 4.5 0.5 0.4 1.0 1.0 15.0 15.0 15.0 3.1 13.3 3.7 0.3 0.3 0.3 0.5 0.2 0.1 0.1 0.1 0.1 0.1 0.1 0.1 0.1 0.1 0.1 0.1 0.1 0.1 0.5 8.8 6.4 1.5 0.3 7.7
0.6 0.2 0.1 0.1 0.1 0.5 0.5 1.2 0.5 3.0 0.8 1.8 0.2 2.6 0.4 5.7 14.0 15.0 13.6 2.6 5.5 1.2 0.3 0.4 0.2 0.1 0.1 0.1 0.1 0.1 0.1 0.1 0.1 0.1 0.1 0.1 0.2 0.2 0.2 0.2 0.3 11.4 15.0 15.0
1.1 0.3 0.2 2.3 0.2 0.1 0.3 0.3 0.2 0.3 0.4 0.1 0.1 0.7 0.3 0.2 0.5 9.2 1.8 9.5 1.0 0.6 0.6 0.2 0.1 0.2 0.1 0.1 0.1 0.1 0.1 0.1 0.1 0.1 0.1 0.1 0.2 0.7 5.8 12.4 15.0 15.0 13.5 15.0
3.8 0.7 0.2 0.1 0.1 0.1 9.5 0.6 0.5 0.1 0.1 0.5 1.8 0.3 0.1 1.4 0.9 0.4 0.3 0.4 0.5 0.6 0.3 0.2 0.1 0.1 0.1 0.1 0.1 0.1 0.1 0.1 0.1 0.1 0.1 0.7 13.9 15.0 3.4 4.6 15.0 15.0 5.5 15.0
0.1 0.1 0.1 0.1 0.1 0.1 0.2 0.1 0.1 0.1 0.2 0.2 0.2 0.6 0.2 0.4 0.7 0.4 0.4 0.3 0.3 0.3 0.5 0.3 0.2 0.1 0.1 0.1 0.1 0.1 0.1 0.1 0.3 13.6 15.0 15.0 15.0 7.4 4.5 15.0 14.8 15.0 15.0 15.0
0.1 0.2 0.1 0.1 0.1 0.1 0.1 0.2 0.6 0.4 0.3 1.5 1.7 0.5 0.3 0.1 0.2 0.3 0.4 0.3 0.3 0.3 0.2 0.3 0.4 0.3 0.3 0.6 2.8 2.8 3.3 15.0 15.0 15.0 15.0 15.0 15.0 3.3 15.0 15.0 15.0 11.6 4.1 4.1
0.2 0.4 0.2 0.1 0.2 0.1 0.1 0.3 0.7 0.4 0.9 4.6 12.5 0.3 0.2 0.4 0.3 0.1 0.2 0.2 0.2 0.2 0.6 10.8 15.0 15.0 15.0 15.0 15.0 15.0 15.0 15.0 15.0 15.0 15.0 15.0 3.8 15.0 15.0 15.0 8.0 4.0 12.9 1.5
0.2 0.1 0.1 0.1 0.1 0.1 0.1 0.1 0.2 0.4 0.4 0.7 0.4 4.6 0.7 0.2 0.4 0.1 0.1 0.1 1.0 10.1 15.0 15.0 15.0 15.0 15.0 15.0 15.0 15.0 15.0 15.0 15.0 15.0 11.8 3.7 2.8 4.6 5.1 8.3 15.0 15.0 15.0 14.9